DateTimeUTC,F1_A11,F1_S11,BsB_S11,BsG_S11,BsR_S11,BbsB_S11,BbsG_S11,BbsR_S11,BaB_A11,BaG_A11,BaR_A11,Tu_S11,T_S11,Uu_S11,U_S11,P_S11,T1_A11
2021-07-26T10:00:00Z,00000200,20000000,,,,,,,-000.04,-000.24,-000.22,18.0,24.8,06.7,04.4,0675.7,31.0
2021-07-26T10:01:00Z,00000200,20000000,,,,,,,-000.05,0000.33,0000.27,18.0,24.8,06.7,04.4,0675.7,31.0
2021-07-26T10:02:00Z,00000200,20000000,,,,,,,0000.09,0000.07,-000.04,18.0,24.8,06.7,04.4,0675.7,31.0
2021-07-26T10:03:00Z,00000200,60000000,,,,,,,0000.24,0000.03,-000.24,18.0,24.8,06.7,04.4,0675.7,31.0
2021-07-26T10:04:00Z,00000200,40000000,0001.19,0000.70,0000.60,-000.12,0000.23,-000.00,-000.13,0000.10,0000.53,18.1,24.6,06.7,04.5,0676.6,31.0
2021-07-26T10:05:00Z,00000200,00000000,0000.99,0000.27,0000.22,-000.23,0000.34,-000.07,0000.43,0000.25,0000.27,18.2,24.6,06.6,04.5,0676.7,31.0
2021-07-26T10:06:00Z,00000200,00000000,0001.17,0000.37,0000.27,0001.02,0000.06,0000.11,-000.00,0000.07,-000.18,18.2,24.6,06.8,04.6,0676.7,31.0
2021-07-26T10:07:00Z,00000200,00000000,0001.57,0000.35,0000.01,0000.41,0000.28,-000.19,0000.09,-000.07,-000.04,18.2,24.5,06.8,04.6,0676.7,31.0
2021-07-26T10:08:00Z,00000200,00000000,0000.21,0000.39,-000.10,0000.34,0000.14,-000.41,-000.25,-000.14,0000.10,18.2,24.5,06.8,04.6,0676.6,31.0
2021-07-26T10:09:00Z,00000200,00000000,0000.76,0000.55,0000.20,0000.36,0000.08,-000.22,0000.32,0000.06,0000.06,18.2,24.6,06.6,04.5,0676.6,31.0
2021-07-26T10:10:00Z,00000200,00000000,0001.56,0000.44,0000.28,0000.39,0000.17,-000.20,-000.01,0000.37,0000.02,18.2,24.6,06.6,04.5,0676.7,31.0
2021-07-26T10:11:00Z,00000200,00000000,0000.92,0000.50,0000.26,0000.37,0000.34,-000.14,-000.03,-000.10,-000.14,18.2,24.6,06.5,04.4,0676.7,31.0
2021-07-26T10:12:00Z,00000200,00000000,0001.27,0000.43,0000.04,0000.39,0000.06,-000.06,0000.19,0000.01,0000.14,18.3,24.6,06.5,04.4,0676.7,31.0
2021-07-26T10:13:00Z,00000200,00000000,0001.07,0000.44,0000.08,0000.31,0000.11,-000.01,0000.08,-000.12,0000.09,18.3,24.5,06.5,04.4,0676.7,31.0
2021-07-26T10:14:00Z,00000200,00000000,0000.66,0000.57,0000.19,0000.77,0000.21,0000.07,0000.19,0000.35,-000.01,18.3,24.6,06.3,04.3,0676.7,31.0
2021-07-26T10:15:00Z,00000200,00000000,0001.36,0000.61,-000.01,0000.70,0000.18,-000.27,-000.18,0000.01,-000.05,18.3,24.6,06.4,04.3,0676.7,31.0
2021-07-26T10:16:00Z,00000200,00000000,0000.76,0000.28,0000.12,0000.30,0000.21,-000.13,0000.07,0000.04,0000.09,18.3,24.6,06.3,04.3,0676.7,31.0
2021-07-26T10:17:00Z,00000200,00000000,0000.44,0000.43,-000.20,0000.18,0000.14,-000.40,0000.32,0000.38,0000.20,18.3,24.6,06.3,04.3,0676.7,31.0
2021-07-26T10:18:00Z,00000200,00000000,0001.38,0000.43,-000.11,0000.28,0000.30,-000.25,-000.39,-000.26,-000.19,18.3,24.6,06.1,04.2,0676.7,31.0
2021-07-26T10:19:00Z,00000200,00000000,0001.74,0000.71,0000.40,0000.76,0000.29,-000.20,0000.24,0000.04,0000.32,18.3,24.5,06.2,04.2,0676.7,31.0
2021-07-26T10:20:00Z,00000200,00000000,0001.02,0000.49,0000.11,0000.24,-000.14,-000.08,0000.03,-000.07,-000.24,18.3,24.6,06.1,04.1,0676.7,31.0
2021-07-26T10:21:00Z,00000200,00000000,0000.73,0000.68,0000.24,0000.41,0000.21,-000.07,-000.00,0000.21,0000.12,18.3,24.6,06.1,04.2,0676.7,31.0
2021-07-26T10:22:00Z,00000200,00000000,0001.36,0000.37,0000.22,0000.33,-000.01,-000.03,0000.53,0000.02,0000.29,18.3,24.6,06.0,04.1,0676.7,31.0
2021-07-26T10:23:00Z,00000200,00000000,0001.14,0000.66,0000.20,0000.33,-000.12,-000.04,-000.17,-000.11,-000.10,18.3,24.5,06.0,04.1,0676.8,31.0
2021-07-26T10:24:00Z,00000200,00000000,0000.83,0000.37,-000.07,0000.18,0000.08,-000.47,0000.11,0000.51,0000.04,18.3,24.6,05.9,04.0,0676.8,31.0
2021-07-26T10:25:00Z,00000200,00000000,0000.89,0000.52,0000.48,0000.39,0000.29,-000.04,-000.14,-000.43,0000.04,18.3,24.6,05.9,04.0,0676.8,31.0
2021-07-26T10:26:00Z,00000200,00000000,0000.92,0000.49,0000.36,0000.98,-000.08,-000.08,0000.22,0000.29,0000.03,18.3,24.6,05.9,04.0,0676.8,31.0
2021-07-26T10:27:00Z,00000200,00000000,0001.27,0000.64,0000.41,0000.68,0000.24,0000.06,0000.37,0000.32,0000.05,18.4,24.6,05.9,04.0,0676.8,31.0
2021-07-26T10:28:00Z,00000200,00000000,0001.14,0000.11,0000.34,0000.67,0000.22,-000.02,0000.03,-000.02,0000.32,18.4,24.6,05.8,04.0,0676.8,31.0
2021-07-26T10:29:00Z,00000200,00000000,0000.84,0000.58,0000.08,0000.04,-000.01,0000.11,0000.19,0000.20,-000.36,18.4,24.6,05.8,04.0,0676.8,31.0
2021-07-26T10:30:00Z,00000200,00000000,0000.84,0000.55,0000.27,0000.13,0000.18,0000.05,-000.11,-000.22,0000.29,18.4,24.6,05.9,04.0,0676.8,31.0
2021-07-26T10:31:00Z,00000200,00000000,0000.83,0000.29,0000.24,0000.48,0000.04,-000.10,0000.02,-000.20,0000.11,18.4,24.6,05.8,04.0,0676.8,31.0
2021-07-26T10:32:00Z,00000200,00000000,0000.89,0000.45,0000.22,0000.38,0000.18,-000.20,-000.02,0000.21,0000.00,18.4,24.6,05.6,03.8,0676.8,31.0
2021-07-26T10:33:00Z,00000200,00000000,0001.42,0000.47,0000.10,0000.87,-000.02,-000.22,0000.36,0000.29,-000.19,18.4,24.6,05.5,03.7,0676.8,31.0
2021-07-26T10:34:00Z,00000200,00000000,0001.05,0000.41,0000.25,0000.47,0000.27,-000.10,-000.08,0000.26,0000.21,18.4,24.6,05.6,03.8,0676.8,31.0
2021-07-26T10:35:00Z,00000200,00000000,0000.44,0000.73,0000.28,0000.50,0000.10,-000.18,-000.09,-000.11,0000.03,18.4,24.6,05.4,03.7,0676.8,31.0
2021-07-26T10:36:00Z,00000200,00000000,0001.21,0000.52,0000.08,0000.57,0000.33,-000.20,0000.29,-000.01,0000.04,18.4,24.6,05.5,03.7,0676.8,31.0
2021-07-26T10:37:00Z,00000200,00000000,0001.49,0000.71,0000.10,0000.50,0000.15,0000.09,0000.31,0000.33,0000.16,18.4,24.6,05.4,03.7,0676.8,31.0
2021-07-26T10:38:00Z,00000200,00000000,0001.36,0000.63,-000.23,0000.61,0000.01,0000.00,-000.12,0000.11,-000.02,18.4,24.6,05.5,03.7,0676.8,31.0
2021-07-26T10:39:00Z,00000200,00000000,0000.47,0000.47,0000.06,-000.06,0000.22,-000.07,0000.21,-000.04,0000.16,18.4,24.6,05.3,03.6,0676.8,31.0
2021-07-26T10:40:00Z,00000200,00000000,0000.81,0000.38,0000.20,0000.05,-000.00,0000.13,0000.29,0000.07,0000.17,18.4,24.6,05.2,03.6,0676.8,31.0
2021-07-26T10:41:00Z,00000200,00000000,0000.60,0000.73,0000.28,0000.54,-000.04,0000.04,-000.04,0000.06,-000.15,18.4,24.6,05.2,03.6,0676.8,31.0
2021-07-26T10:42:00Z,00000200,00000000,0001.84,0000.58,0000.01,0000.54,0000.43,-000.10,-000.02,0000.16,0000.20,18.5,24.6,05.3,03.7,0676.8,31.0
2021-07-26T10:43:00Z,00000200,00000000,0001.21,0000.61,0000.15,0000.90,0000.23,-000.17,0000.28,0000.02,-000.24,18.5,24.6,05.1,03.5,0676.9,31.0
2021-07-26T10:44:00Z,00000200,00000000,0001.68,0000.54,0000.32,-000.34,0000.36,-000.03,-000.00,0000.38,0000.08,18.5,24.7,05.2,03.6,0676.8,31.0
2021-07-26T10:45:00Z,00000200,00000000,0001.24,0000.56,-000.07,0000.78,0000.03,-000.13,0000.14,0000.17,0000.53,18.5,24.7,05.2,03.5,0676.8,31.0
2021-07-26T10:46:00Z,00000200,00000000,0000.57,0000.42,0000.25,0000.39,0000.19,-000.22,0000.20,-000.29,0000.02,18.5,24.7,05.2,03.6,0676.9,31.0
2021-07-26T10:47:00Z,00000200,00000000,0001.00,0000.54,0000.40,0000.93,0000.33,-000.13,0000.60,0000.57,0000.02,18.5,24.7,05.2,03.5,0676.9,31.0
2021-07-26T10:48:00Z,00000200,00000000,0000.79,0000.38,0000.26,0000.33,0000.19,0000.01,-000.25,0000.06,0000.19,18.5,24.7,05.3,03.6,0676.9,31.0
2021-07-26T10:49:00Z,00000200,00000000,0001.03,0000.31,0000.17,0000.40,0000.25,-000.24,0000.00,0000.02,-000.00,18.5,24.7,05.1,03.5,0676.9,31.0
2021-07-26T10:50:00Z,00000200,00000000,0001.25,0000.40,0000.13,0000.76,0000.15,-000.09,0000.50,0000.42,0000.12,18.5,24.7,05.2,03.6,0676.9,31.0
2021-07-26T10:51:00Z,00000200,00000000,0001.21,0000.70,-000.12,0000.17,0000.20,-000.26,0000.40,-000.01,0000.22,18.5,24.7,05.1,03.5,0676.9,31.0
2021-07-26T10:52:00Z,00000200,00000000,0001.89,0000.48,0000.50,0000.05,0000.27,-000.11,0000.01,0000.32,0000.27,18.5,24.7,05.2,03.5,0676.9,31.0
2021-07-26T10:53:00Z,00000200,00000000,0000.67,0000.46,0000.08,0000.45,0000.25,-000.36,0000.04,-000.02,-000.08,18.5,24.7,05.2,03.5,0677.0,31.0
2021-07-26T10:54:00Z,00000200,00000000,0001.32,0000.62,-000.07,0000.43,0000.01,-000.02,-000.02,0000.40,0000.33,18.5,24.7,05.2,03.6,0677.0,31.0
2021-07-26T10:55:00Z,00000200,00000000,0001.61,0000.58,0000.27,0000.31,0000.08,-000.45,0000.60,0000.15,-000.04,18.5,24.7,05.1,03.5,0677.0,31.0
2021-07-26T10:56:00Z,00000200,00000000,0000.91,0000.61,0000.31,0000.54,0000.39,-000.07,-000.18,-000.00,0000.24,18.5,24.7,05.2,03.5,0677.0,31.0
2021-07-26T10:57:00Z,00000200,40000000,,,,,,,0001.02,0000.61,0000.08,18.6,24.7,05.1,03.5,0676.8,31.0
2021-07-26T10:58:00Z,00000200,60000000,,,,,,,-000.62,-000.14,0000.26,18.3,24.8,05.2,03.5,0675.9,31.0
2021-07-26T10:59:00Z,00000200,20000000,,,,,,,-000.13,-000.69,-000.63,18.3,24.9,05.2,03.4,0676.0,31.0
